Decimomannu, Italy

4:22 PM CEST on June 27, 2017 (GMT +0200)
Decimomannu Mil

Weather History for LIED - November, 2012

Change the Weather History Date:

Wednesday, November 14, 2012

  Actual Average Record
Temperature  
Mean Temperature 67 °F -  
Max Temperature 72 °F 62 °F 73 °F (2000)
Min Temperature 62 °F 45 °F 44 °F (2003)
Cooling Degree Days 2    
Growing Degree Days 17 (Base 50)    
Moisture  
Dew Point 59 °F    
Average Humidity 74    
Maximum Humidity 94    
Minimum Humidity 53    
Precipitation  
Precipitation 0.43 in 0.08 in - ()
Sea Level Pressure  
Sea Level Pressure 30.01 in    
Wind  
Wind Speed 7 mph ()    
Max Wind Speed 16 mph    
Max Gust Speed -    
Visibility 6.2 miles    
Events Rain    
Averages and records for this station are not official NWS values.
T = Trace of Precipitation, MM = Missing Value Source: Averaged Metar Reports

Daily Weather History Graph

Daily Weather History Graph

Search for Another Location

Airport or City:

Trip Planner

Search our weather history database for the weather conditions in past years. The results will help you decide how hot, cold, wet, or windy it might be!

Date:

Astronomy

Nov. 14, 2012 Rise Set
Actual Time 7:06 AM CET 5:09 PM CET
Civil Twilight 6:38 AM CET 5:38 PM CET
Nautical Twilight 6:05 AM CET 6:10 PM CET
Astronomical Twilight 5:34 AM CET 6:42 PM CET
Moon 7:36 AM CET (11/14) 5:42 PM CET (11/14)
Length of Visible Light 11h 00m
Length of Day
10h 02m
New Moon, 0% of the Moon is Illuminated
Nov 14
New Moon
Nov 20
First Quarter
Nov 28
Full
Dec 6
Last Quarter
Dec 13
New

Hourly Weather History & Observations

Time (CET) Temp. Dew Point Humidity Pressure Visibility Wind Dir Wind Speed Gust Speed Precip Events Conditions
1:00 AM 65 °F 62 °F 85% 30.07 in 5 mi East 3.5 mph - -   Mist
1:55 AM 64.4 °F 62.6 °F 94% 30.04 in 5.6 mi NE 6.9 mph - N/A   Partly Cloudy
2:55 AM 64.4 °F 60.8 °F 88% 30.04 in 5.6 mi ENE 4.6 mph - N/A   Partly Cloudy
4:00 AM 63 °F 60 °F 87% 30.03 in 6 mi WNW 2.3 mph - -   Mist
4:55 AM 62.6 °F 59.0 °F 88% 30.01 in 6.2 mi WSW 3.5 mph - N/A   Scattered Clouds
5:55 AM 66.2 °F 59.0 °F 78% 30.01 in 6.2 mi ESE 5.8 mph - N/A   Scattered Clouds
6:55 AM 66.2 °F 60.8 °F 83% 29.98 in 6.2 mi SE 9.2 mph - N/A   Scattered Clouds
7:00 AM 66 °F 61 °F 78% 30.00 in 6 mi SE 9.2 mph - -   Partly Cloudy
8:55 AM 69.8 °F 64.4 °F 83% 30.01 in 6.2 mi SSE 6.9 mph - N/A   Scattered Clouds
10:00 AM 71 °F 63 °F 69% 30.04 in 6 mi SE 16.1 mph - -   Overcast
10:55 AM 71.6 °F 60.8 °F 69% 30.04 in 6.2 mi SE 11.5 mph - N/A   Scattered Clouds
11:55 AM 71.6 °F 59.0 °F 64% 30.04 in 6.2 mi ESE 13.8 mph - N/A   Scattered Clouds
12:55 PM 71.6 °F 59.0 °F 64% 30.01 in 6.2 mi ESE 11.5 mph - N/A   Scattered Clouds
1:00 PM 72 °F 59 °F 55% 30.02 in 7 mi ESE 11.5 mph - -   Overcast
1:55 PM 73.4 °F 57.2 °F 57% 29.98 in 6.2 mi ESE 11.5 mph - N/A   Scattered Clouds
2:55 PM 69.8 °F 57.2 °F 64% 30.01 in 6.2 mi ESE 13.8 mph - N/A   Scattered Clouds
3:55 PM 69.8 °F 55.4 °F 60% 29.98 in 6.2 mi ESE 9.2 mph - N/A   Scattered Clouds
4:00 PM 69 °F 56 °F 53% 29.98 in 7 mi ESE 9.2 mph - -   Overcast
4:55 PM 68.0 °F 55.4 °F 64% 29.98 in 6.2 mi SE 6.9 mph - N/A   Scattered Clouds
5:55 PM 66.2 °F 57.2 °F 73% 29.98 in 6.2 mi ENE 8.1 mph - N/A   Scattered Clouds
6:55 PM 66.2 °F 57.2 °F 73% 29.98 in 6.2 mi NE 9.2 mph - N/A   Scattered Clouds
7:00 PM 66 °F 58 °F 67% 29.98 in 6 mi NE 9.2 mph - -   Mostly Cloudy
7:55 PM 68.0 °F 57.2 °F 68% 29.95 in 6.2 mi ENE 6.9 mph - N/A   Scattered Clouds
8:55 PM 68.0 °F 59.0 °F 73% 29.98 in 6.2 mi East 12.7 mph - N/A   Scattered Clouds
9:55 PM 66.2 °F 57.2 °F 73% 29.98 in 6.2 mi ESE 6.9 mph - N/A   Scattered Clouds
10:00 PM 67 °F 58 °F 66% 29.99 in 7 mi ESE 6.9 mph - -   Partly Cloudy
10:55 PM 64.4 °F 60.8 °F 88% 30.01 in 6.2 mi ESE 2.3 mph - N/A Rain Light Rain
11:07 PM 64.4 °F 60.8 °F 88% 30.01 in 6.2 mi ESE 4.6 mph - N/A   Scattered Clouds
11:18 PM 64.4 °F 60.8 °F 88% 30.01 in 6.2 mi SE 3.5 mph - N/A Rain Light Rain
11:55 PM 62.6 °F 59.0 °F 88% 30.01 in 6.2 mi SSE 2.3 mph - N/A Rain Light Rain